QPF
0.03 0.02 0.01 0.01 0.03 0.02 0.02 0.03 0.02 0.02 0.01 0.01 0.01 0.01 0.01 0.03 0.05 0.05 0.06 0.07 0.08 0.08 0.05 0.04 0.04 0.04 0.04 0.05 0.06 0.08 0.06 0.06 0.08 0.09 0.10 0.13 0.13 0.14
0.03 0.02 0.02 0.02 0.02 0.02 0.02 0.02 0.02 0.02 0.01 0.01 0.01 0.00 0.01 0.02 0.04 0.03 0.05 0.07 0.08 0.08 0.06 0.04 0.04 0.04 0.04 0.05 0.06 0.06 0.05 0.04 0.05 0.08 0.09 0.10 0.12 0.12
0.03 0.03 0.02 0.02 0.02 0.02 0.01 0.01 0.01 0.01 0.01 0.01 0.01 0.00 0.01 0.01 0.02 0.02 0.03 0.05 0.07 0.09 0.07 0.05 0.04 0.03 0.04 0.04 0.04 0.05 0.06 0.05 0.04 0.07 0.10 0.08 0.09 0.10
0.03 0.03 0.02 0.01 0.01 0.01 0.01 0.01 0.01 0.02 0.02 0.01 0.01 0.01 0.01 0.01 0.01 0.02 0.02 0.03 0.05 0.09 0.10 0.07 0.05 0.05 0.05 0.05 0.05 0.06 0.06 0.07 0.05 0.05 0.06 0.06 0.06 0.07
0.02 0.01 0.01 0.01 0.00 0.01 0.01 0.01 0.01 0.02 0.03 0.02 0.01 0.01 0.01 0.02 0.02 0.02 0.02 0.03 0.05 0.08 0.10 0.10 0.08 0.07 0.07 0.05 0.04 0.04 0.04 0.05 0.06 0.05 0.05 0.06 0.09 0.07
0.01 0.01 0.01 0.00 0.01 0.01 0.01 0.01 0.01 0.01 0.01 0.01 0.02 0.01 0.01 0.01 0.01 0.01 0.02 0.02 0.03 0.05 0.07 0.09 0.08 0.07 0.05 0.03 0.02 0.02 0.02 0.03 0.05 0.04 0.04 0.04 0.07 0.07
0.01 0.01 0.01 0.01 0.01 0.01 0.00 0.00 0.01 0.00 0.00 0.01 0.01 0.01 0.01 0.01 0.02 0.02 0.02 0.02 0.01 0.02 0.04 0.05 0.06 0.06 0.05 0.03 0.03 0.03 0.02 0.03 0.03 0.04 0.04 0.04 0.04 0.05
0.01 0.01 0.01 0.00 0.00 0.00 0.00 0.01 0.01 0.01 0.00 0.00 0.01 0.01 0.00 0.01 0.02 0.02 0.01 0.01 0.01 0.01 0.03 0.04 0.05 0.04 0.05 0.04 0.03 0.03 0.04 0.04 0.04 0.04 0.04 0.04 0.05 0.05
0.01 0.01 0.00 0.00 0.00 0.00 0.00 0.00 0.00 0.00 0.00 0.00 0.00 0.00 0.00 0.01 0.02 0.02 0.01 0.01 0.01 0.01 0.02 0.03 0.04 0.04 0.03 0.04 0.03 0.02 0.02 0.04 0.05 0.05 0.06 0.07 0.08 0.08
0.01 0.01 0.01 0.00 0.00 0.00 0.00 0.00 0.00 0.00 0.00 0.00 0.00 0.01 0.01 0.01 0.01 0.02 0.02 0.02 0.01 0.01 0.02 0.03 0.04 0.04 0.04 0.03 0.03 0.02 0.01 0.01 0.02 0.03 0.05 0.06 0.07 0.09
0.00 0.00 0.00 0.00 0.00 0.00 0.00 0.00 0.00 0.00 0.00 0.00 0.00 0.00 0.01 0.02 0.02 0.02 0.02 0.01 0.01 0.01 0.02 0.03 0.03 0.03 0.04 0.04 0.03 0.02 0.01 0.01 0.01 0.02 0.03 0.04 0.06 0.07
0.02 0.01 0.00 0.00 0.01 0.01 0.00 0.00 0.00 0.00 0.00 0.00 0.00 0.00 0.01 0.02 0.03 0.02 0.01 0.01 0.00 0.00 0.02 0.03 0.03 0.03 0.04 0.04 0.04 0.03 0.02 0.01 0.01 0.01 0.02 0.02 0.02 0.03
0.04 0.03 0.02 0.01 0.01 0.01 0.00 0.00 0.00 0.00 0.01 0.01 0.01 0.00 0.01 0.02 0.03 0.02 0.01 0.01 0.01 0.00 0.01 0.02 0.03 0.03 0.04 0.04 0.05 0.04 0.02 0.01 0.01 0.01 0.02 0.02 0.02 0.01
0.02 0.03 0.03 0.02 0.01 0.01 0.00 0.00 0.01 0.01 0.01 0.01 0.01 0.01 0.01 0.01 0.02 0.02 0.02 0.02 0.01 0.01 0.01 0.01 0.02 0.02 0.02 0.03 0.04 0.04 0.03 0.01 0.01 0.01 0.01 0.02 0.02 0.02
0.03 0.04 0.03 0.03 0.03 0.01 0.01 0.01 0.01 0.01 0.01 0.01 0.01 0.01 0.01 0.01 0.01 0.03 0.04 0.03 0.02 0.02 0.01 0.02 0.02 0.02 0.03 0.02 0.02 0.03 0.03 0.02 0.01 0.01 0.01 0.01 0.01 0.02
0.05 0.05 0.05 0.04 0.03 0.02 0.02 0.02 0.01 0.01 0.01 0.01 0.01 0.01 0.01 0.02 0.02 0.03 0.03 0.04 0.04 0.04 0.04 0.04 0.04 0.03 0.03 0.03 0.02 0.02 0.02 0.02 0.01 0.01 0.01 0.01 0.01 0.01
0.06 0.06 0.05 0.04 0.03 0.03 0.03 0.02 0.02 0.01 0.01 0.01 0.01 0.01 0.01 0.02 0.04 0.04 0.04 0.05 0.04 0.04 0.05 0.05 0.06 0.05 0.03 0.03 0.03 0.02 0.02 0.01 0.01 0.01 0.01 0.01 0.01 0.01
0.05 0.03 0.03 0.03 0.04 0.05 0.04 0.03 0.02 0.02 0.02 0.02 0.01 0.01 0.02 0.03 0.04 0.05 0.06 0.07 0.07 0.06 0.06 0.05 0.05 0.05 0.04 0.04 0.03 0.02 0.02 0.01 0.01 0.01 0.01 0.01 0.01 0.01
0.03 0.02 0.03 0.04 0.05 0.07 0.06 0.05 0.04 0.04 0.03 0.02 0.02 0.02 0.04 0.04 0.04 0.05 0.06 0.07 0.09 0.08 0.06 0.05 0.03 0.03 0.03 0.02 0.02 0.02 0.01 0.01 0.01 0.01 0.01 0.01 0.01 0.01
0.03 0.03 0.04 0.05 0.06 0.07 0.08 0.09 0.07 0.06 0.05 0.04 0.04 0.05 0.06 0.06 0.05 0.05 0.05 0.05 0.06 0.06 0.05 0.04 0.03 0.02 0.02 0.01 0.01 0.01 0.02 0.01 0.02 0.01 0.01 0.01 0.01 0.01
0.03 0.03 0.02 0.04 0.06 0.07 0.08 0.08 0.07 0.06 0.06 0.06 0.07 0.06 0.06 0.05 0.04 0.04 0.04 0.04 0.05 0.04 0.04 0.03 0.04 0.04 0.03 0.02 0.01 0.01 0.01 0.01 0.01 0.01 0.01 0.01 0.01 0.01
0.03 0.04 0.03 0.03 0.04 0.07 0.08 0.05 0.05 0.04 0.05 0.06 0.07 0.07 0.06 0.06 0.05 0.04 0.04 0.03 0.04 0.04 0.04 0.04 0.06 0.06 0.04 0.02 0.01 0.01 0.01 0.01 0.01 0.01 0.01 0.01 0.01 0.01
0.03 0.04 0.04 0.03 0.05 0.05 0.04 0.04 0.04 0.04 0.03 0.03 0.03 0.04 0.04 0.04 0.04 0.04 0.03 0.03 0.03 0.03 0.04 0.04 0.04 0.04 0.03 0.01 0.01 0.01 0.01 0.01 0.01 0.01 0.01 0.01 0.01 0.01
MSLP
1016.25 1016.62 1017.08 1017.63 1018.24 1018.87 1019.49 1020.08 1020.60 1021.05 1021.42 1021.71 1021.93 1022.08 1022.17 1022.21 1022.23 1022.22 1022.23 1022.25 1022.30 1022.38 1022.49 1022.61 1022.70 1022.76 1022.76 1022.68 1022.51 1022.28 1022.01 1021.71 1021.41 1021.15 1020.92 1020.73 1020.57 1020.41
1016.12 1016.43 1016.84 1017.33 1017.88 1018.47 1019.07 1019.65 1020.19 1020.68 1021.10 1021.45 1021.72 1021.92 1022.05 1022.13 1022.16 1022.18 1022.19 1022.23 1022.30 1022.41 1022.56 1022.72 1022.88 1023.00 1023.06 1023.04 1022.93 1022.73 1022.47 1022.17 1021.86 1021.58 1021.33 1021.12 1020.96 1020.81
1016.06 1016.33 1016.68 1017.12 1017.62 1018.17 1018.74 1019.32 1019.88 1020.40 1020.87 1021.27 1021.59 1021.83 1021.99 1022.09 1022.13 1022.14 1022.15 1022.17 1022.24 1022.35 1022.52 1022.71 1022.91 1023.08 1023.20 1023.24 1023.18 1023.03 1022.80 1022.52 1022.21 1021.91 1021.64 1021.41 1021.23 1021.08
1016.09 1016.32 1016.63 1017.01 1017.47 1017.99 1018.55 1019.12 1019.70 1020.25 1020.76 1021.20 1021.56 1021.84 1022.02 1022.12 1022.15 1022.14 1022.12 1022.11 1022.15 1022.25 1022.40 1022.59 1022.82 1023.02 1023.19 1023.28 1023.28 1023.18 1023.00 1022.74 1022.45 1022.15 1021.86 1021.61 1021.41 1021.25
1016.20 1016.39 1016.66 1017.01 1017.43 1017.92 1018.47 1019.05 1019.63 1020.21 1020.74 1021.22 1021.61 1021.91 1022.10 1022.20 1022.22 1022.19 1022.13 1022.08 1022.08 1022.13 1022.26 1022.44 1022.66 1022.88 1023.08 1023.21 1023.26 1023.22 1023.08 1022.86 1022.60 1022.31 1022.03 1021.77 1021.55 1021.38
1016.33 1016.51 1016.76 1017.07 1017.47 1017.94 1018.46 1019.03 1019.62 1020.20 1020.76 1021.25 1021.66 1021.98 1022.18 1022.29 1022.30 1022.25 1022.17 1022.08 1022.04 1022.05 1022.14 1022.29 1022.49 1022.71 1022.92 1023.08 1023.17 1023.17 1023.09 1022.92 1022.69 1022.44 1022.17 1021.92 1021.70 1021.52
1016.45 1016.63 1016.86 1017.16 1017.53 1017.97 1018.47 1019.02 1019.59 1020.16 1020.72 1021.22 1021.64 1021.97 1022.20 1022.32 1022.34 1022.29 1022.21 1022.11 1022.04 1022.03 1022.08 1022.20 1022.37 1022.58 1022.78 1022.95 1023.07 1023.11 1023.07 1022.95 1022.78 1022.57 1022.33 1022.11 1021.90 1021.72
1016.49 1016.68 1016.91 1017.19 1017.54 1017.95 1018.42 1018.93 1019.47 1020.02 1020.55 1021.05 1021.48 1021.83 1022.08 1022.23 1022.29 1022.28 1022.22 1022.15 1022.08 1022.06 1022.10 1022.19 1022.34 1022.52 1022.71 1022.88 1023.01 1023.07 1023.07 1023.01 1022.88 1022.72 1022.54 1022.34 1022.16 1021.99
1016.39 1016.61 1016.86 1017.15 1017.48 1017.85 1018.28 1018.74 1019.23 1019.74 1020.24 1020.72 1021.15 1021.52 1021.81 1022.01 1022.14 1022.19 1022.19 1022.17 1022.15 1022.15 1022.19 1022.27 1022.39 1022.55 1022.72 1022.87 1023.00 1023.09 1023.12 1023.09 1023.02 1022.91 1022.77 1022.62 1022.47 1022.32
1016.14 1016.41 1016.70 1016.99 1017.31 1017.66 1018.04 1018.45 1018.88 1019.33 1019.79 1020.24 1020.67 1021.06 1021.40 1021.67 1021.88 1022.02 1022.11 1022.17 1022.22 1022.26 1022.32 1022.41 1022.53 1022.66 1022.80 1022.94 1023.06 1023.14 1023.19 1023.20 1023.17 1023.11 1023.02 1022.91 1022.78 1022.65
1015.73 1016.08 1016.41 1016.74 1017.06 1017.39 1017.73 1018.08 1018.46 1018.86 1019.27 1019.69 1020.12 1020.53 1020.91 1021.25 1021.55 1021.79 1021.99 1022.14 1022.26 1022.37 1022.47 1022.58 1022.69 1022.80 1022.92 1023.04 1023.14 1023.22 1023.28 1023.31 1023.31 1023.29 1023.24 1023.17 1023.07 1022.95
1015.20 1015.64 1016.03 1016.40 1016.75 1017.07 1017.39 1017.71 1018.04 1018.39 1018.76 1019.15 1019.57 1019.99 1020.41 1020.82 1021.19 1021.53 1021.82 1022.07 1022.27 1022.45 1022.59 1022.71 1022.82 1022.93 1023.03 1023.12 1023.20 1023.28 1023.34 1023.38 1023.41 1023.42 1023.40 1023.35 1023.28 1023.18
1014.57 1015.10 1015.57 1016.00 1016.38 1016.73 1017.05 1017.35 1017.65 1017.97 1018.31 1018.68 1019.09 1019.52 1019.97 1020.42 1020.86 1021.26 1021.64 1021.96 1022.23 1022.45 1022.63 1022.78 1022.89 1022.99 1023.07 1023.14 1023.21 1023.28 1023.34 1023.39 1023.44 1023.46 1023.47 1023.44 1023.39 1023.29
1013.85 1014.47 1015.02 1015.52 1015.97 1016.35 1016.70 1017.01 1017.32 1017.62 1017.95 1018.31 1018.71 1019.14 1019.61 1020.08 1020.56 1021.01 1021.43 1021.80 1022.12 1022.38 1022.59 1022.74 1022.86 1022.95 1023.02 1023.08 1023.14 1023.20 1023.27 1023.33 1023.38 1023.42 1023.44 1023.43 1023.38 1023.29
1013.05 1013.74 1014.37 1014.95 1015.47 1015.92 1016.31 1016.66 1016.99 1017.31 1017.65 1018.01 1018.41 1018.85 1019.31 1019.80 1020.29 1020.76 1021.20 1021.60 1021.94 1022.22 1022.44 1022.61 1022.73 1022.82 1022.88 1022.94 1023.00 1023.05 1023.12 1023.18 1023.24 1023.29 1023.32 1023.31 1023.27 1023.18
1012.15 1012.89 1013.60 1014.25 1014.84 1015.36 1015.82 1016.24 1016.62 1016.98 1017.35 1017.73 1018.14 1018.58 1019.05 1019.53 1020.02 1020.50 1020.94 1021.34 1021.69 1021.98 1022.20 1022.38 1022.50 1022.59 1022.66 1022.72 1022.78 1022.84 1022.91 1022.97 1023.03 1023.08 1023.11 1023.10 1023.05 1022.95
1011.15 1011.93 1012.68 1013.39 1014.05 1014.65 1015.19 1015.68 1016.13 1016.55 1016.97 1017.39 1017.82 1018.28 1018.75 1019.24 1019.72 1020.19 1020.64 1021.04 1021.38 1021.67 1021.90 1022.08 1022.22 1022.32 1022.40 1022.46 1022.52 1022.58 1022.65 1022.71 1022.76 1022.80 1022.81 1022.79 1022.72 1022.61
1010.06 1010.84 1011.62 1012.37 1013.09 1013.76 1014.38 1014.95 1015.48 1015.97 1016.45 1016.93 1017.41 1017.89 1018.38 1018.88 1019.37 1019.84 1020.28 1020.68 1021.03 1021.33 1021.57 1021.76 1021.91 1022.02 1022.11 1022.18 1022.25 1022.30 1022.36 1022.40 1022.44 1022.45 1022.44 1022.39 1022.29 1022.16
1008.93 1009.69 1010.47 1011.24 1012.00 1012.73 1013.42 1014.06 1014.67 1015.24 1015.79 1016.33 1016.86 1017.39 1017.92 1018.44 1018.94 1019.43 1019.88 1020.29 1020.66 1020.97 1021.23 1021.44 1021.60 1021.73 1021.83 1021.90 1021.96 1022.00 1022.04 1022.06 1022.06 1022.04 1021.98 1021.89 1021.76 1021.59
1007.82 1008.54 1009.30 1010.08 1010.86 1011.63 1012.37 1013.07 1013.75 1014.40 1015.02 1015.62 1016.21 1016.79 1017.36 1017.92 1018.45 1018.97 1019.45 1019.88 1020.27 1020.61 1020.89 1021.13 1021.31 1021.45 1021.55 1021.62 1021.66 1021.68 1021.68 1021.66 1021.62 1021.55 1021.45 1021.31 1021.13 1020.93
1006.79 1007.47 1008.21 1008.98 1009.76 1010.55 1011.32 1012.07 1012.80 1013.50 1014.18 1014.84 1015.49 1016.12 1016.74 1017.34 1017.92 1018.47 1018.99 1019.47 1019.89 1020.26 1020.57 1020.82 1021.02 1021.17 1021.26 1021.32 1021.34 1021.33 1021.29 1021.22 1021.12 1021.00 1020.84 1020.65 1020.43 1020.18
1005.91 1006.56 1007.26 1008.01 1008.79 1009.58 1010.36 1011.13 1011.89 1012.63 1013.35 1014.06 1014.75 1015.43 1016.09 1016.74 1017.37 1017.97 1018.53 1019.04 1019.51 1019.91 1020.25 1020.52 1020.73 1020.87 1020.96 1021.00 1020.99 1020.93 1020.85 1020.73 1020.58 1020.41 1020.20 1019.97 1019.70 1019.41
1005.21 1005.82 1006.50 1007.23 1007.99 1008.76 1009.54 1010.32 1011.09 1011.84 1012.58 1013.31 1014.04 1014.75 1015.45 1016.14 1016.81 1017.45 1018.05 1018.61 1019.11 1019.54 1019.91 1020.20 1020.41 1020.55 1020.63 1020.64 1020.59 1020.50 1020.38 1020.21 1020.02 1019.80 1019.56 1019.29 1018.99 1018.68
Thickness
5732 5730 5727 5726 5724 5723 5720 5717 5712 5708 5708 5710 5711 5713 5713 5712 5712 5711 5710 5710 5709 5707 5706 5705 5703 5702 5701 5700 5699 5698 5697 5697 5697 5696 5697 5698 5699 5700
5727 5726 5723 5722 5720 5719 5716 5714 5712 5708 5704 5705 5706 5707 5707 5708 5706 5705 5705 5704 5703 5703 5701 5700 5699 5698 5696 5695 5694 5693 5692 5692 5691 5691 5692 5693 5694 5695
5723 5721 5719 5717 5715 5713 5711 5709 5707 5705 5701 5701 5701 5701 5701 5700 5700 5700 5699 5698 5697 5697 5696 5695 5694 5692 5691 5690 5689 5688 5687 5686 5686 5686 5687 5688 5689 5689
5717 5715 5713 5712 5709 5708 5706 5704 5702 5700 5698 5694 5694 5694 5694 5693 5693 5693 5693 5692 5691 5691 5690 5689 5688 5687 5686 5685 5683 5683 5682 5681 5681 5681 5681 5682 5683 5684
5712 5710 5708 5706 5704 5702 5700 5698 5696 5695 5692 5689 5688 5687 5686 5686 5686 5686 5686 5685 5685 5685 5684 5683 5682 5681 5681 5679 5678 5677 5677 5676 5676 5676 5676 5677 5677 5678
5707 5705 5703 5702 5699 5697 5694 5691 5689 5687 5684 5682 5680 5679 5679 5679 5678 5677 5677 5677 5677 5678 5678 5677 5676 5676 5675 5674 5673 5672 5671 5671 5671 5670 5670 5671 5671 5672
5700 5699 5698 5697 5695 5692 5690 5686 5683 5680 5677 5675 5673 5672 5672 5671 5670 5669 5669 5670 5670 5670 5670 5670 5670 5670 5669 5668 5667 5667 5666 5665 5664 5664 5664 5665 5665 5665
5694 5693 5692 5691 5689 5687 5685 5683 5679 5675 5672 5670 5668 5666 5666 5665 5664 5663 5662 5662 5662 5663 5662 5662 5663 5663 5663 5662 5662 5661 5660 5658 5658 5658 5658 5658 5658 5658
5688 5686 5686 5685 5682 5680 5678 5676 5674 5671 5669 5666 5664 5663 5662 5661 5659 5657 5656 5656 5656 5655 5655 5656 5656 5656 5656 5656 5655 5655 5654 5653 5652 5652 5651 5651 5651 5650
5683 5681 5679 5678 5676 5673 5671 5668 5666 5665 5663 5662 5660 5659 5658 5657 5655 5653 5652 5650 5649 5649 5648 5648 5648 5648 5649 5649 5649 5648 5648 5647 5646 5645 5644 5644 5643 5643
5679 5676 5674 5672 5671 5668 5664 5661 5659 5659 5658 5657 5655 5654 5653 5652 5650 5648 5646 5644 5644 5644 5642 5641 5641 5641 5642 5642 5643 5642 5641 5640 5639 5638 5637 5637 5636 5635
5674 5671 5669 5667 5665 5662 5659 5656 5653 5653 5651 5650 5649 5648 5646 5645 5644 5643 5642 5640 5638 5637 5636 5635 5635 5634 5635 5635 5635 5634 5634 5633 5632 5631 5630 5629 5629 5628
5668 5667 5665 5662 5660 5657 5654 5652 5650 5648 5645 5643 5642 5642 5641 5640 5639 5638 5637 5636 5634 5633 5632 5629 5629 5627 5627 5627 5628 5627 5627 5626 5625 5624 5623 5622 5621 5621
5664 5663 5661 5658 5655 5652 5649 5647 5644 5642 5639 5637 5636 5636 5635 5635 5634 5633 5632 5631 5630 5629 5627 5624 5623 5621 5620 5620 5621 5621 5620 5619 5618 5617 5616 5615 5614 5614
5659 5657 5655 5651 5648 5646 5644 5642 5638 5636 5634 5632 5631 5631 5630 5630 5629 5627 5626 5625 5623 5622 5620 5619 5618 5616 5615 5615 5615 5614 5613 5612 5611 5610 5609 5609 5608 5607
5652 5650 5647 5645 5642 5640 5638 5635 5633 5631 5629 5628 5627 5626 5624 5623 5622 5621 5620 5618 5616 5615 5614 5613 5612 5611 5610 5609 5608 5607 5606 5605 5604 5603 5602 5602 5601 5601
5645 5642 5640 5637 5635 5633 5631 5629 5627 5625 5623 5622 5621 5619 5618 5618 5616 5614 5613 5611 5609 5608 5607 5605 5604 5603 5603 5602 5602 5602 5600 5599 5598 5596 5595 5595 5595 5595
5638 5636 5634 5632 5629 5627 5625 5624 5622 5619 5618 5616 5615 5613 5612 5612 5610 5608 5606 5604 5603 5601 5599 5597 5596 5596 5595 5595 5595 5595 5594 5593 5592 5590 5589 5589 5590 5589
5632 5630 5628 5626 5624 5622 5620 5618 5616 5614 5612 5610 5609 5608 5607 5605 5604 5602 5600 5598 5596 5595 5593 5590 5589 5589 5590 5591 5592 5589 5588 5587 5586 5584 5583 5583 5584 5584
5626 5624 5622 5620 5618 5616 5614 5612 5610 5608 5606 5604 5603 5602 5600 5599 5597 5596 5594 5592 5590 5588 5587 5585 5584 5584 5585 5585 5585 5583 5582 5581 5580 5579 5578 5576 5576 5576
5621 5619 5617 5615 5612 5610 5608 5607 5604 5602 5600 5598 5596 5595 5593 5592 5591 5590 5589 5585 5584 5582 5582 5581 5581 5578 5577 5576 5576 5578 5577 5575 5575 5573 5572 5571 5571 5571
5616 5614 5612 5609 5607 5604 5602 5600 5598 5596 5594 5592 5591 5589 5588 5587 5585 5584 5583 5581 5579 5578 5577 5576 5574 5572 5572 5572 5573 5572 5571 5569 5568 5566 5565 5565 5565 5565
5610 5608 5606 5604 5601 5598 5595 5594 5592 5590 5588 5587 5586 5584 5583 5581 5580 5579 5577 5576 5574 5573 5571 5570 5568 5567 5567 5567 5566 5566 5564 5563 5562 5561 5561 5560 5559 5559